Upstream stations:
Downstream station:
SHEF ID: WANO2 Cimarron River near Waynoka, OK
STATION TYPE:
Regulating: Stage = 9.00, Flow = 4005
PRECIP STAGE RIV-FLOW BAT-LOAD
in ft cfs volt
Ccp-Rev Ccp-Rev Ccp-Rev Ccp-Rev
(US/Central)
01/17 00:00 0.00 5.60 28 12.73
01/17 01:00 0.00 5.60 28 12.73
01/17 02:00 0.00 5.60 28 12.73
01/17 03:00 0.00 5.59 27 12.65
01/17 04:00 0.00 5.59 27 12.65
01/17 05:00 0.00 5.59 27 12.65
01/17 06:00 0.00 5.59 27 12.65
01/17 07:00 0.00 5.59 27 12.65
01/17 08:00 0.00 5.58 24 12.57
01/17 09:00 0.00 5.58 24 12.65
01/17 10:00 0.00 5.58 24 13.29
01/17 11:00 0.00 5.58 24 13.84
01/17 12:00 0.00 5.60 28 13.84
01/17 13:00 0.00 5.59 27 13.68
01/17 14:00 0.00 5.60 28 13.68
01/17 15:00 0.00 5.60 28 13.60
01/17 16:00 0.00 5.60 28 13.60
01/17 17:00 0.00 5.61 29 13.60
01/17 18:00 0.00 5.61 29 13.37
01/17 19:00 0.00 5.61 29 13.05
01/17 20:00 0.00 5.61 29 12.89
01/17 21:00 0.00 5.60 28 12.81
01/17 22:00 0.00 5.60 28 12.81
01/17 23:00 0.00 5.60 28 12.73